Gillette, WY

7:44 AM MDT on July 28, 2017 (GMT -0600)
Gillette-Campbell County

Weather History for KGCC - September, 2011

Change the Weather History Date:

Saturday, September 17, 2011

  Actual Average Record
Temperature  
Mean Temperature 55 °F 58 °F  
Max Temperature 63 °F 73 °F 91 °F (2000)
Min Temperature 47 °F 43 °F 23 °F (1965)
Degree Days  
Heating Degree Days 10 8  
Month to date heating degree days 86 94  
Since 1 July heating degree days 91 151  
Cooling Degree Days 0 1  
Month to date cooling degree days 7 35  
Year to date cooling degree days 529 495  
Growing Degree Days 6 (Base 50)    
Moisture  
Dew Point 48 °F    
Average Humidity 77    
Maximum Humidity 93    
Minimum Humidity 60    
Precipitation  
Precipitation 0.09 in 0.04 in 0.80 in (1945)
Month to date precipitation 0.36 0.60  
Year to date precipitation 14.94 11.08  
Sea Level Pressure  
Sea Level Pressure 29.88 in    
Wind  
Wind Speed 9 mph (WNW)    
Max Wind Speed 22 mph    
Max Gust Speed 28 mph    
Visibility 10 miles    
Events Rain    
T = Trace of Precipitation, MM = Missing Value Source: NWS Daily Summary

Daily Weather History Graph

Daily Weather History Graph

Search for Another Location

Airport or City:

Trip Planner

Search our weather history database for the weather conditions in past years. The results will help you decide how hot, cold, wet, or windy it might be!

Date:

Astronomy

Sep. 17, 2011 Rise Set
Actual Time 6:43 AM MDT 7:09 PM MDT
Civil Twilight 6:14 AM MDT 7:38 PM MDT
Nautical Twilight 5:39 AM MDT 8:12 PM MDT
Astronomical Twilight 5:04 AM MDT 8:48 PM MDT
Moon 9:26 PM MDT (9/17) 12:02 PM MDT (9/17)
Length of Visible Light 13h 24m
Length of Day
12h 26m
Waning Gibbous, 76% of the Moon is Illuminated
Sep 17
Waning Gibbous
Sep 20
Last Quarter
Sep 27
New
Oct 3
First Quarter
Oct 11
Full

Hourly Weather History & Observations

Time (MDT) Temp. Dew Point Humidity Pressure Visibility Wind Dir Wind Speed Gust Speed Precip Events Conditions
12:53 AM 51.8 °F 44.6 °F 76% 29.81 in 10.0 mi Calm Calm - N/A   Clear
1:53 AM 54.0 °F 44.1 °F 69% 29.69 in 10.0 mi Calm Calm - N/A   Clear
2:53 AM 50.0 °F 44.1 °F 80% 29.71 in 10.0 mi West 10.4 mph - N/A   Clear
3:53 AM 50.0 °F 44.1 °F 80% 29.72 in 10.0 mi West 9.2 mph - N/A   Clear
5:53 AM 50.0 °F 44.6 °F 82% 29.86 in 10.0 mi West 9.2 mph - N/A   Clear
6:53 AM 51.1 °F 45.0 °F 80% 29.77 in 10.0 mi West 9.2 mph - N/A   Clear
7:53 AM 54.0 °F 46.0 °F 75% 29.80 in 10.0 mi West 9.2 mph - N/A   Clear
8:53 AM 57.9 °F 46.9 °F 67% 29.81 in 10.0 mi NW 8.1 mph - N/A   Mostly Cloudy
9:53 AM 60.8 °F 46.4 °F 59% 29.91 in 10.0 mi North 9.2 mph - N/A   Mostly Cloudy
10:53 AM 62.1 °F 48.0 °F 60% 29.83 in 10.0 mi North 12.7 mph 17.3 mph N/A   Mostly Cloudy
11:53 AM 57.9 °F 48.9 °F 72% 29.86 in 10.0 mi NW 12.7 mph - N/A   Overcast
12:51 PM 53.6 °F 51.8 °F 94% 29.95 in 8.0 mi NNW 11.5 mph - 0.02 in Rain Light Rain
12:53 PM 54.0 °F 52.0 °F 93% 29.90 in 7.0 mi NNW 12.7 mph - 0.02 in Rain Light Rain
1:35 PM 51.8 °F 48.2 °F 88% 29.96 in 9.0 mi NNW 16.1 mph - 0.02 in Rain Light Rain
1:53 PM 53.1 °F 50.0 °F 89% 29.90 in 10.0 mi North 10.4 mph - 0.03 in Rain Light Rain
2:53 PM 54.0 °F 50.0 °F 86% 29.92 in 8.0 mi NNW 6.9 mph - 0.01 in Rain Light Rain
3:53 PM 54.0 °F 50.0 °F 86% 29.93 in 10.0 mi West 3.5 mph - 0.02 in   Overcast
4:53 PM 54.0 °F 50.0 °F 86% 29.89 in 10.0 mi SSE 12.7 mph - 0.01 in   Overcast
5:53 PM 54.0 °F 51.1 °F 90% 29.93 in 10.0 mi SSW 6.9 mph - N/A   Clear
6:53 PM 52.0 °F 48.9 °F 89% 29.93 in 10.0 mi SSW 5.8 mph - N/A   Clear
7:53 PM 51.1 °F 48.0 °F 89% 29.94 in 10.0 mi SW 5.8 mph - N/A   Clear
8:53 PM 50.0 °F 46.0 °F 86% 29.98 in 10.0 mi WNW 10.4 mph - N/A   Clear
9:53 PM 51.1 °F 48.0 °F 89% 29.97 in 10.0 mi WSW 8.1 mph - N/A   Clear
10:53 PM 50.0 °F 46.0 °F 86% 29.97 in 10.0 mi WSW 11.5 mph - N/A   Partly Cloudy
11:53 PM 50.0 °F 46.0 °F 86% 29.99 in 10.0 mi WSW 11.5 mph - N/A   Clear